(89) Julia
ephemeris date magn radius delta ra dec elong phase
Today9 May 202510.92.302 AU2.034 AU21h23m-22°28'92.0°26.0°
Opposition10 Aug 20258.52.153 AU1.141 AU21h20m-11°39'176.1°1.8°
(89) Julia - 2025-05-09
astro.vanbuitenen.nl


 
-1 year
-1 month
-1 day
Now
+1 day
+1 month
+1 year

The interactive orbit chart above shows the body's path through the solar system and its position at the given date. Green and blue lines are shown perpendicular to the ecliptic plane: Green if the path is above the ecliptic plane, blue if it is below. (Left-click and drag to rotate the view; Right-click and drag to move the view; Use scroll wheel to zoom in our out.)

The orbital elements of Julia are:

            e (Eccentricity)                : 0.1838954
            a (Semimajor axis)              : 2.5512714
            i (Inclination)                 : 16.12261
            Ω (Longitude of ascending node) : 311.52003
            ω (Argument of perihelion)      : 45.17067
            M (Mean anomaly)                : 310.02214
            Epoch                           : 2025 May 05

            L (Longitude of perihelion)     : 355.54140
            B (Latitude of perihelion)      : 11.35826
            P (Orbital period in years)     : 4.08            
        

The light curve chart below shows the estimated development of the minor planet's magnitude.


The all-sky chart below shows the path of the minor planet over the same period as the light curve. The current position is marked yellow.





The following chart shows the path of the minor planet in the next few days. The field of view is optimized for (~10x50) binoculars and finderscopes. A more printer-friendly version of the same chart can be found below.




Ephemerides:
Date       Time       RA (2000)    DEC (2000)    delta   radius  elong  phase   PA    magn
2025-05-09 00:00 UT   21 23 34.4   -22 28 39     2.034    2.302   92.0   26.0   252   10.9 
2025-05-09 09:59 UT   21 24 03.1   -22 25 18     2.028    2.301   92.3   26.0   252   10.9 
2025-05-10 00:00 UT   21 24 43.0   -22 20 35     2.020    2.300   92.7   26.0   252   10.9 
2025-05-11 00:00 UT   21 25 50.6   -22 12 32     2.006    2.299   93.4   26.0   252   10.9 
2025-05-12 00:00 UT   21 26 57.2   -22 04 28     1.993    2.297   94.0   26.0   252   10.9 
2025-05-13 00:00 UT   21 28 02.6   -21 56 24     1.979    2.295   94.7   26.0   252   10.8 
2025-05-14 00:00 UT   21 29 07.0   -21 48 21     1.965    2.293   95.4   26.0   252   10.8 
2025-05-15 00:00 UT   21 30 10.2   -21 40 18     1.952    2.291   96.1   26.0   252   10.8 
2025-05-16 00:00 UT   21 31 12.3   -21 32 15     1.938    2.289   96.8   26.0   252   10.8 
2025-05-17 00:00 UT   21 32 13.2   -21 24 12     1.925    2.287   97.5   26.0   252   10.8 
2025-05-18 00:00 UT   21 33 13.0   -21 16 10     1.911    2.286   98.2   26.0   252   10.8 
2025-05-19 00:00 UT   21 34 11.5   -21 08 08     1.898    2.284   98.9   26.0   252   10.7 
2025-05-20 00:00 UT   21 35 08.9   -21 00 07     1.884    2.282   99.6   25.9   252   10.7 
2025-05-21 00:00 UT   21 36 05.0   -20 52 06     1.871    2.280  100.3   25.9   252   10.7 
2025-05-22 00:00 UT   21 36 59.9   -20 44 07     1.857    2.278  101.0   25.9   252   10.7 
2025-05-23 00:00 UT   21 37 53.5   -20 36 08     1.844    2.277  101.7   25.8   252   10.7 
2025-05-24 00:00 UT   21 38 45.8   -20 28 10     1.831    2.275  102.4   25.8   252   10.6 
2025-05-25 00:00 UT   21 39 36.8   -20 20 13     1.818    2.273  103.1   25.7   252   10.6 
2025-05-26 00:00 UT   21 40 26.5   -20 12 17     1.804    2.271  103.9   25.7   252   10.6 
2025-05-27 00:00 UT   21 41 14.8   -20 04 22     1.791    2.269  104.6   25.6   252   10.6 
2025-05-28 00:00 UT   21 42 01.7   -19 56 29     1.778    2.268  105.4   25.5   252   10.6 
2025-05-29 00:00 UT   21 42 47.3   -19 48 37     1.765    2.266  106.1   25.5   252   10.5 
2025-05-30 00:00 UT   21 43 31.4   -19 40 46     1.752    2.264  106.8   25.4   252   10.5 
2025-05-31 00:00 UT   21 44 14.1   -19 32 56     1.739    2.262  107.6   25.3   252   10.5 
2025-06-01 00:00 UT   21 44 55.4   -19 25 08     1.726    2.261  108.4   25.2   252   10.5 
2025-06-02 00:00 UT   21 45 35.2   -19 17 21     1.713    2.259  109.1   25.1   252   10.5 
2025-06-03 00:00 UT   21 46 13.5   -19 09 36     1.701    2.257  109.9   25.0   252   10.4 
2025-06-04 00:00 UT   21 46 50.3   -19 01 52     1.688    2.255  110.7   24.9   253   10.4 
2025-06-05 00:00 UT   21 47 25.6   -18 54 10     1.675    2.254  111.5   24.8   253   10.4 
2025-06-06 00:00 UT   21 47 59.4   -18 46 29     1.663    2.252  112.2   24.6   253   10.4 
2025-06-07 00:00 UT   21 48 31.6   -18 38 50     1.650    2.250  113.0   24.5   253   10.4 
2025-06-08 00:00 UT   21 49 02.2   -18 31 13     1.638    2.248  113.8   24.4   253   10.3 


    Terminology:
            
    delta:  distance between minor planet and earth in AU
    radius: distance between minor planet and sun in AU
    magn:   magnitude (brightness) estimate    
    ra:     right ascension in hours (24h = 360deg)
    dec:    declination in degrees
    elong:  elongation in degrees (angle sun-earth-minor planet)    
    phase:  phase angle in degrees (angle sun-minor planet-earth)        
    AU:     Astronomical Unit (mean distance between earth and sun: 149597870.7 km
    

Orbital elements provided by the MPC (Minor Planet Center).
Calculations by a modified version of AAPlus, a C# implementation of the AA+ project by PJ Naughter from the algorithms presented in the book "Astronomical Algorithms" by Jean Meeus.
NGC2000 dso catalog and star labels from VizieR as provided by the Strasbourg astronomical Data Center.
Tycho2 catalog from the ESO archive.